• In Hungary
  • List of Countries
  • For 7 days
  • Water Temperature
  • Satellite Maps
  • Weather Map
  • News
  • Weather Widgets
  • user-avatar
    Login

    Hourly Weather Enervozh

    Today, 25 September, Tuesday

    Time Temperature Precipitation Wind Pressure Humidity
    00:00 +9°C° 0 mm 1 mps 748 mmHg 93%
    01:00 +9°C° 0 mm 1 mps 747 mmHg 92%
    02:00 +9°C° 0 mm 1 mps 747 mmHg 92%
    03:00 +8°C° 0 mm 2 mps 747 mmHg 92%
    04:00 +8°C° 0.2 mm 2 mps 747 mmHg 92%
    05:00 +8°C° 0.2 mm 2 mps 746 mmHg 92%
    06:00 +8°C° 0.2 mm 3 mps 746 mmHg 92%
    07:00 +9°C° 0.3 mm 3 mps 746 mmHg 89%
    08:00 +10°C° 0.3 mm 4 mps 745 mmHg 86%
    09:00 +9°C° 0.3 mm 5 mps 745 mmHg 83%
    10:00 +9°C° 0.4 mm 5 mps 745 mmHg 83%
    11:00 +9°C° 0.4 mm 6 mps 745 mmHg 84%
    12:00 +9°C° 0.4 mm 6 mps 745 mmHg 84%
    13:00 +10°C° 0.7 mm 6 mps 745 mmHg 84%
    14:00 +10°C° 0.7 mm 6 mps 744 mmHg 85%
    15:00 +10°C° 0.7 mm 7 mps 744 mmHg 85%
    16:00 +10°C° 1.6 mm 6 mps 744 mmHg 87%
    17:00 +9°C° 1.6 mm 6 mps 744 mmHg 88%
    18:00 +9°C° 1.6 mm 6 mps 744 mmHg 90%
    19:00 +9°C° 0.3 mm 5 mps 744 mmHg 91%
    20:00 +10°C° 0.3 mm 4 mps 744 mmHg 91%
    21:00 +10°C° 0.3 mm 4 mps 744 mmHg 92%
    22:00 +10°C° 0.4 mm 4 mps 744 mmHg 92%
    23:00 +10°C° 0.4 mm 3 mps 744 mmHg 91%

    Tomorrow, 26 September, Wednesday

    Time Temperature Precipitation Wind Pressure Humidity
    00:00 +9°C° 0.4 mm 3 mps 744 mmHg 90%
    01:00 +8°C° 0 mm 3 mps 744 mmHg 91%
    02:00 +7°C° 0 mm 4 mps 745 mmHg 92%
    03:00 +6°C° 0 mm 4 mps 745 mmHg 92%
    04:00 +5°C° 0 mm 4 mps 746 mmHg 93%
    05:00 +5°C° 0 mm 4 mps 746 mmHg 93%
    06:00 +5°C° 0 mm 4 mps 747 mmHg 93%
    07:00 +6°C° 0 mm 5 mps 747 mmHg 90%
    08:00 +6°C° 0 mm 5 mps 748 mmHg 88%
    09:00 +7°C° 0 mm 5 mps 748 mmHg 85%
    10:00 +8°C° 0 mm 5 mps 749 mmHg 84%
    11:00 +8°C° 0 mm 5 mps 749 mmHg 82%
    12:00 +9°C° 0 mm 5 mps 750 mmHg 81%
    13:00 +10°C° 0.1 mm 4 mps 750 mmHg 80%
    14:00 +10°C° 0.1 mm 4 mps 750 mmHg 79%
    15:00 +10°C° 0.1 mm 4 mps 751 mmHg 79%
    16:00 +10°C° 0.1 mm 3 mps 751 mmHg 82%
    17:00 +9°C° 0.1 mm 3 mps 751 mmHg 85%
    18:00 +8°C° 0.1 mm 2 mps 752 mmHg 88%
    19:00 +8°C° 0.2 mm 3 mps 752 mmHg 90%
    20:00 +8°C° 0.2 mm 3 mps 752 mmHg 92%
    21:00 +7°C° 0.2 mm 3 mps 752 mmHg 94%
    22:00 +7°C° 0.2 mm 3 mps 752 mmHg 94%
    23:00 +7°C° 0.2 mm 3 mps 752 mmHg 93%

    Day after tomorrow, 27 September, Thursday

    Time Temperature Precipitation Wind Pressure Humidity
    00:00 +7°C° 0.2 mm 3 mps 752 mmHg 93%
    01:00 +5°C° 0.2 mm 3 mps 751 mmHg 92%
    02:00 +5°C° 0.2 mm 3 mps 751 mmHg 92%
    03:00 +4°C° 0.2 mm 4 mps 751 mmHg 91%
    04:00 +4°C° 0 mm 4 mps 750 mmHg 91%
    05:00 +3°C° 0 mm 4 mps 750 mmHg 91%
    06:00 +3°C° 0 mm 4 mps 749 mmHg 91%
    07:00 +3°C° 0 mm 5 mps 749 mmHg 84%
    08:00 +4°C° 0 mm 6 mps 748 mmHg 78%
    09:00 +5°C° 0 mm 7 mps 748 mmHg 71%
    10:00 +5°C° 0 mm 7 mps 747 mmHg 67%
    11:00 +6°C° 0 mm 8 mps 746 mmHg 63%
    12:00 +7°C° 0 mm 8 mps 746 mmHg 59%
    13:00 +6°C° 0.3 mm 8 mps 745 mmHg 63%
    14:00 +6°C° 0.3 mm 8 mps 744 mmHg 67%
    15:00 +5°C° 0.3 mm 8 mps 744 mmHg 71%
    16:00 +5°C° 0.9 mm 7 mps 743 mmHg 76%
    17:00 +4°C° 0.9 mm 7 mps 743 mmHg 81%
    18:00 +4°C° 0.9 mm 7 mps 742 mmHg 85%
    19:00 +4°C° 0.4 mm 6 mps 742 mmHg 87%
    20:00 +5°C° 0.4 mm 5 mps 742 mmHg 88%
    21:00 +5°C° 0.4 mm 5 mps 742 mmHg 89%
    22:00 +5°C° 0 mm 4 mps 742 mmHg 90%
    23:00 +5°C° 0 mm 4 mps 742 mmHg 92%

    28 September, Friday

    Time Temperature Precipitation Wind Pressure Humidity
    00:00 +4°C° 0 mm 4 mps 742 mmHg 93%
    01:00 +4°C° 0 mm 4 mps 742 mmHg 93%
    02:00 +4°C° 0 mm 4 mps 743 mmHg 93%
    03:00 +3°C° 0 mm 4 mps 743 mmHg 93%
    04:00 +3°C° 0 mm 4 mps 743 mmHg 93%
    05:00 +3°C° 0 mm 4 mps 744 mmHg 92%
    06:00 +2°C° 0 mm 5 mps 744 mmHg 92%
    07:00 +3°C° 0 mm 5 mps 745 mmHg 88%
    08:00 +3°C° 0 mm 5 mps 745 mmHg 85%
    09:00 +4°C° 0 mm 6 mps 745 mmHg 81%
    10:00 +5°C° 0 mm 6 mps 746 mmHg 76%
    11:00 +7°C° 0 mm 6 mps 746 mmHg 72%
    12:00 +8°C° 0 mm 6 mps 746 mmHg 67%
    13:00 +8°C° 0 mm 6 mps 746 mmHg 65%
    14:00 +9°C° 0 mm 6 mps 746 mmHg 62%
    15:00 +9°C° 0 mm 6 mps 745 mmHg 59%
    16:00 +8°C° 0.4 mm 5 mps 745 mmHg 65%
    17:00 +7°C° 0.4 mm 5 mps 744 mmHg 71%
    18:00 +7°C° 0.4 mm 4 mps 743 mmHg 77%
    19:00 +7°C° 0.6 mm 6 mps 742 mmHg 77%
    20:00 +8°C° 0.6 mm 7 mps 741 mmHg 78%
    21:00 +9°C° 0.6 mm 8 mps 740 mmHg 78%
    22:00 +9°C° 0.6 mm 8 mps 739 mmHg 80%
    23:00 +10°C° 0.6 mm 8 mps 738 mmHg 83%

    29 September, Saturday

    Time Temperature Precipitation Wind Pressure Humidity
    00:00 +11°C° 0.6 mm 8 mps 738 mmHg 86%
    01:00 +10°C° 0.8 mm 8 mps 738 mmHg 85%
    02:00 +10°C° 0.8 mm 8 mps 739 mmHg 84%
    03:00 +9°C° 0.8 mm 8 mps 739 mmHg 83%
    04:00 +6°C° 0 mm 7 mps 741 mmHg 83%
    05:00 +5°C° 0 mm 6 mps 742 mmHg 83%
    06:00 +3°C° 0 mm 6 mps 744 mmHg 82%
    07:00 +3°C° 0 mm 6 mps 745 mmHg 77%
    08:00 +3°C° 0 mm 6 mps 746 mmHg 72%
    09:00 +3°C° 0 mm 6 mps 747 mmHg 67%
    10:00 +4°C° 0 mm 6 mps 748 mmHg 63%
    11:00 +5°C° 0 mm 6 mps 749 mmHg 59%
    12:00 +7°C° 0 mm 5 mps 750 mmHg 55%
    13:00 +7°C° 0 mm 5 mps 751 mmHg 55%
    14:00 +7°C° 0 mm 4 mps 751 mmHg 56%
    15:00 +7°C° 0 mm 4 mps 752 mmHg 56%
    16:00 +7°C° 0 mm 3 mps 752 mmHg 61%
    17:00 +6°C° 0 mm 2 mps 752 mmHg 66%
    18:00 +6°C° 0 mm 1 mps 753 mmHg 72%
    19:00 +6°C° 0 mm 1 mps 753 mmHg 73%
    20:00 +5°C° 0 mm 1 mps 754 mmHg 75%
    21:00 +5°C° 0 mm 1 mps 754 mmHg 77%
    22:00 +5°C° 0 mm 1 mps 754 mmHg 78%
    23:00 +4°C° 0 mm 1 mps 755 mmHg 78%

    30 September, Sunday

    Time Temperature Precipitation Wind Pressure Humidity
    00:00 +4°C° 0 mm 1 mps 755 mmHg 79%
    01:00 +4°C° 0 mm 1 mps 755 mmHg 82%
    02:00 +3°C° 0 mm 1 mps 755 mmHg 84%
    03:00 +2°C° 0 mm 1 mps 756 mmHg 86%
    04:00 +2°C° 0 mm 1 mps 756 mmHg 88%
    05:00 +2°C° 0 mm 1 mps 756 mmHg 89%
    06:00 +1°C° 0 mm 1 mps 756 mmHg 91%
    07:00 +2°C° 0 mm 2 mps 757 mmHg 84%
    08:00 +3°C° 0 mm 2 mps 757 mmHg 76%
    09:00 +4°C° 0 mm 2 mps 757 mmHg 69%
    10:00 +5°C° 0 mm 2 mps 758 mmHg 64%
    11:00 +5°C° 0 mm 3 mps 758 mmHg 60%
    12:00 +7°C° 0 mm 3 mps 758 mmHg 55%
    13:00 +7°C° 0 mm 3 mps 758 mmHg 54%
    14:00 +7°C° 0 mm 3 mps 758 mmHg 53%
    15:00 +7°C° 0 mm 3 mps 758 mmHg 52%
    16:00 +6°C° 0 mm 2 mps 758 mmHg 56%
    17:00 +4°C° 0 mm 2 mps 759 mmHg 61%
    18:00 +3°C° 0 mm 2 mps 759 mmHg 65%
    19:00 +3°C° 0 mm 1 mps 759 mmHg 66%
    20:00 +3°C° 0 mm 1 mps 759 mmHg 67%
    21:00 +2°C° 0 mm 1 mps 760 mmHg 69%
    22:00 +2°C° 0 mm 1 mps 760 mmHg 69%
    23:00 +1°C° 0 mm 1 mps 760 mmHg 69%
    Show more